Marion, OH

7:25 AM EDT on May 27, 2017 (GMT -0400)
Marion Municipal

Weather History for KMNN - May, 2013

Change the Weather History Date:

Sunday, May 12, 2013

  Actual Average (KDLZ) Record (KDLZ)
Temperature  
Mean Temperature 44 °F -  
Max Temperature 51 °F 72 °F 88 °F (1979)
Min Temperature 37 °F 46 °F 29 °F (1938)
Degree Days  
Heating Degree Days 22    
Moisture  
Dew Point 31 °F    
Average Humidity 64    
Maximum Humidity 93    
Minimum Humidity 43    
Precipitation  
Precipitation 0.00 in - - ()
Sea Level Pressure  
Sea Level Pressure 30.04 in    
Wind  
Wind Speed 9 mph (WNW)    
Max Wind Speed 20 mph    
Max Gust Speed 28 mph    
Visibility 10 miles    
Events      
Averages and records for this station are not official NWS values.
T = Trace of Precipitation, MM = Missing Value Source: NWS Daily Summary

Daily Weather History Graph

Daily Weather History Graph

Search for Another Location

Airport or City:

Trip Planner

Search our weather history database for the weather conditions in past years. The results will help you decide how hot, cold, wet, or windy it might be!

Date:

Astronomy

May. 12, 2013 Rise Set
Actual Time 6:18 AM EDT 8:39 PM EDT
Civil Twilight 5:47 AM EDT 9:10 PM EDT
Nautical Twilight 5:09 AM EDT 9:48 PM EDT
Astronomical Twilight 4:27 AM EDT 10:30 PM EDT
Moon 8:12 AM EDT (5/12) 11:05 PM EDT (5/12)
Length of Visible Light 15h 23m
Length of Day
14h 21m
Waxing Crescent, 6% of the Moon is Illuminated
May 12
Waxing Crescent
May 18
First Quarter
May 25
Full
May 31
Last Quarter
Jun 8
New

Hourly Weather History & Observations

Time (EDT) Temp. Windchill Dew Point Humidity Pressure Visibility Wind Dir Wind Speed Gust Speed Precip Events Conditions
12:53 AM 39.0 °F 35.7 °F 34.0 °F 82% 29.99 in 10.0 mi NW 4.6 mph - N/A   Clear
1:53 AM 39.0 °F 35.7 °F 34.0 °F 82% 29.99 in 10.0 mi West 4.6 mph - N/A   Clear
2:53 AM 37.0 °F 33.3 °F 35.1 °F 93% 29.98 in 10.0 mi SW 4.6 mph - N/A   Clear
3:53 AM 37.9 °F 33.5 °F 34.0 °F 86% 29.98 in 10.0 mi West 5.8 mph - N/A   Clear
4:53 AM 37.0 °F 33.3 °F 33.1 °F 86% 29.97 in 10.0 mi West 4.6 mph - N/A   Clear
5:53 AM 37.9 °F 32.7 °F 33.1 °F 83% 29.97 in 10.0 mi West 6.9 mph - N/A   Partly Cloudy
6:53 AM 37.9 °F 32.7 °F 33.1 °F 83% 29.99 in 10.0 mi West 6.9 mph - N/A   Clear
7:53 AM 41.0 °F 34.7 °F 34.0 °F 76% 29.99 in 10.0 mi West 10.4 mph - N/A   Clear
8:53 AM 43.0 °F 36.0 °F 32.0 °F 65% 30.01 in 10.0 mi WNW 13.8 mph 19.6 mph N/A   Clear
9:53 AM 44.1 °F 36.8 °F 30.0 °F 58% 30.03 in 10.0 mi WNW 16.1 mph 26.5 mph N/A   Partly Cloudy
10:53 AM 45.0 °F 37.6 °F 30.0 °F 56% 30.03 in 10.0 mi West 17.3 mph 26.5 mph N/A   Mostly Cloudy
11:53 AM 45.0 °F 37.4 °F 28.9 °F 53% 30.04 in 10.0 mi West 18.4 mph 26.5 mph N/A   Overcast
12:53 PM 46.9 °F - 28.9 °F 50% 30.05 in 10.0 mi WNW 18.4 mph 26.5 mph N/A   Mostly Cloudy
1:53 PM 48.0 °F - 28.9 °F 48% 30.05 in 10.0 mi West 11.5 mph 24.2 mph N/A   Mostly Cloudy
2:53 PM 48.9 °F - 28.9 °F 46% 30.06 in 10.0 mi WNW 19.6 mph 27.6 mph N/A   Overcast
3:53 PM 48.9 °F - 30.0 °F 48% 30.06 in 10.0 mi West 16.1 mph 24.2 mph N/A   Mostly Cloudy
4:53 PM 48.9 °F - 28.9 °F 46% 30.06 in 10.0 mi WNW 18.4 mph 25.3 mph N/A   Mostly Cloudy
5:53 PM 50.0 °F - 28.0 °F 43% 30.06 in 10.0 mi WNW 18.4 mph 23.0 mph N/A   Mostly Cloudy
6:53 PM 48.0 °F - 28.0 °F 46% 30.07 in 10.0 mi WNW 11.5 mph 20.7 mph N/A   Mostly Cloudy
7:53 PM 46.9 °F - 28.0 °F 48% 30.07 in 10.0 mi NW 11.5 mph 21.9 mph N/A   Partly Cloudy
8:53 PM 43.0 °F 38.8 °F 28.0 °F 56% 30.09 in 10.0 mi NW 6.9 mph - N/A   Clear
9:53 PM 42.1 °F 37.7 °F 28.0 °F 58% 30.12 in 10.0 mi NNW 6.9 mph - N/A   Clear
10:53 PM 39.9 °F 37.8 °F 28.9 °F 65% 30.14 in 10.0 mi NW 3.5 mph - N/A   Clear
11:53 PM 39.9 °F 37.8 °F 30.0 °F 68% 30.14 in 10.0 mi NW 3.5 mph - N/A   Overcast